Weather in Mapusa

India     15°36′01″N   73°48′56″E
temp.,
°C
wind,
m/s
gust,
m/s
humid.,
%
clouds,
%
prec.,
mm/h
press.,
hPa
HPBL,
m
13 may, thu
thu1323:30+30wnw3371100 0.1 1006568
02:30+29wnw3373100 0.0 1005652
05:30+29nnw2376100 0.3 1005399
08:30+30nnw3373100 0.1 1007573
11:30+30w5471100 0.2 1006692
14:30+31wnw656715 0.4 1003574
17:30+30wnw5571100 0.4 1003622
20:30+30nne1271100 0.4 1005338
14 may, fri
fri1423:30+30wsw227299 0.5 1005451
02:30+29nne0173100 0.1 1003393
05:30+28e2379100 0.8 1003287
08:30+29se3476100 0.1 1005656
11:30+30wsw337087 0.1 1004623
14:30+30wsw6672100 0.2 1001454
17:30+30w4472100 0.3 1002756
20:30+29wsw1177100 0.2 1003287
15 may, sat
sat1523:30+28n4484100 1.1 1001342
02:30+28n3482100 0.0 998293
05:30+28nne4580100 0.0 999337
08:30+29sse4573100 1.4 1000310
11:30+30s6670100 2.1 1000496
14:30+31ese81163100 1.3 997637
17:30+29e101671100 1.6 9961142
20:30+29ese81266100 0.2 9981208
16 may, sun
sun1623:30+29e81469100 0.8 9971177
02:30+28e91571100 8.2 9941215
05:30+28ese152275100 9.7 9931561
08:30+27se172390100 13.8 9951657
11:30+28sse192689100 29.5 9951742
14:30+27sse162194100 13.5 9931282
17:30+28s162086100 41.1 9961494
20:30+28s151985100 3.5 9991322
17 may, mon
mon1723:30+28s141883100 7.7 10001366
02:30+28s131879100 2.6 9991374
05:30+29s121580100 5.4 10001329
08:30+29s12158030 3.2 10031302
11:30+29s11137980 5.4 10041099
14:30+30s911731 2.9 10031112
17:30+29s10117666 3.0 10031052
20:30+29s101278100 0.3 1004996